RYR1304 LEPA-LEZL

Flight info

Callsign RYR1304
Flight time 1h 19m
Altitude 35000
Route EPAMA N733 VLC M985 MAMIS
Aircraft A320/M-SDE3FGHIRWY/LB1

Departure

Time 2026-05-07 13:28
Airport Palma de Mallorca Airport (LEPA)

Arrival

Time 2026-05-07 14:48
Airport Seville Airport (LEZL)
Time Latitude Longitude Altitude Speed Heading
2026-05-07 13:11 39.54757 2.73632 38 ft 0 kts 58°
2026-05-07 13:21 39.54747 2.73610 36 ft 4 kts 58°
2026-05-07 13:21 39.54737 2.73585 38 ft 4 kts 79°
2026-05-07 13:21 39.54741 2.73556 37 ft 4 kts 139°
2026-05-07 13:21 39.54762 2.73537 37 ft 4 kts 149°
2026-05-07 13:22 39.54772 2.73530 36 ft 0 kts 149°
2026-05-07 13:24 39.54759 2.73539 37 ft 4 kts 149°
2026-05-07 13:24 39.54737 2.73557 38 ft 3 kts 149°
2026-05-07 13:24 39.54722 2.73568 38 ft 2 kts 149°
2026-05-07 13:25 39.54696 2.73588 38 ft 9 kts 149°
2026-05-07 13:25 39.54627 2.73626 38 ft 11 kts 165°
2026-05-07 13:25 39.54567 2.73661 38 ft 9 kts 150°
2026-05-07 13:25 39.54520 2.73698 38 ft 8 kts 148°
2026-05-07 13:26 39.54466 2.73740 38 ft 9 kts 149°
2026-05-07 13:26 39.54421 2.73778 38 ft 5 kts 125°
2026-05-07 13:26 39.54432 2.73816 38 ft 5 kts 58°
2026-05-07 13:26 39.54434 2.73821 36 ft 0 kts 57°
2026-05-07 13:27 39.54439 2.73830 37 ft 7 kts 57°
2026-05-07 13:28 39.54575 2.74125 38 ft 75 kts 59°
2026-05-07 13:28 39.54966 2.74955 39 ft 137 kts 59°
2026-05-07 13:28 39.55504 2.76089 529 ft 144 kts 58°
2026-05-07 13:28 39.55842 2.76814 1084 ft 141 kts 59°
2026-05-07 13:29 39.56355 2.77928 1787 ft 144 kts 61°
2026-05-07 13:29 39.56868 2.79057 2326 ft 155 kts 63°
2026-05-07 13:29 39.57453 2.80358 2634 ft 178 kts 62°
2026-05-07 13:29 39.58126 2.81853 2942 ft 201 kts 62°
2026-05-07 13:30 39.58849 2.83451 3566 ft 208 kts 61°
2026-05-07 13:30 39.59591 2.85083 4354 ft 211 kts 61°
2026-05-07 13:30 39.60349 2.86741 5105 ft 216 kts 61°
2026-05-07 13:30 39.61119 2.88422 5866 ft 219 kts 60°
2026-05-07 13:31 39.61982 2.90078 6587 ft 225 kts 45°
2026-05-07 13:31 39.63360 2.91055 7233 ft 234 kts 11°
2026-05-07 13:31 39.64986 2.90836 7892 ft 243 kts 335°
2026-05-07 13:31 39.66252 2.89400 8553 ft 248 kts 298°
2026-05-07 13:32 39.66945 2.87339 9285 ft 250 kts 289°
2026-05-07 13:32 39.67490 2.85185 10036 ft 252 kts 284°
2026-05-07 13:32 39.67924 2.82975 10735 ft 254 kts 280°
2026-05-07 13:32 39.68247 2.80713 11455 ft 256 kts 276°
2026-05-07 13:33 39.68454 2.78412 12177 ft 257 kts 271°
2026-05-07 13:33 39.68596 2.76090 12911 ft 260 kts 275°
2026-05-07 13:33 39.68963 2.73752 13450 ft 274 kts 283°
2026-05-07 13:33 39.69659 2.71321 13692 ft 300 kts 291°
2026-05-07 13:34 39.70529 2.68769 13869 ft 323 kts 291°
2026-05-07 13:34 39.72479 2.63065 14305 ft 361 kts 291°
2026-05-07 13:34 39.73504 2.60062 14893 ft 367 kts 291°
2026-05-07 13:35 39.74543 2.57017 15528 ft 370 kts 291°
2026-05-07 13:35 39.75586 2.53949 16163 ft 373 kts 291°
2026-05-07 13:35 39.76634 2.50850 16797 ft 376 kts 291°
2026-05-07 13:35 39.77688 2.47721 17420 ft 379 kts 291°
2026-05-07 13:36 39.78748 2.44571 18035 ft 383 kts 290°
2026-05-07 13:36 39.79819 2.41382 18597 ft 386 kts 290°
2026-05-07 13:36 39.80891 2.38181 19170 ft 387 kts 289°
2026-05-07 13:36 39.81676 2.34852 19757 ft 384 kts 277°
2026-05-07 13:37 39.81946 2.31411 20362 ft 381 kts 266°
2026-05-07 13:37 39.81700 2.27955 20987 ft 378 kts 256°
2026-05-07 13:37 39.81012 2.24674 21591 ft 377 kts 250°
2026-05-07 13:37 39.80242 2.21419 22194 ft 377 kts 250°
2026-05-07 13:38 39.79474 2.18156 22785 ft 378 kts 250°
2026-05-07 13:38 39.78706 2.14878 23348 ft 379 kts 250°
2026-05-07 13:38 39.77934 2.11596 23835 ft 380 kts 250°
2026-05-07 13:38 39.77158 2.08303 24276 ft 382 kts 250°
2026-05-07 13:39 39.76378 2.04996 24707 ft 383 kts 249°
2026-05-07 13:39 39.75595 2.01678 25124 ft 384 kts 249°
2026-05-07 13:39 39.74809 1.98359 25524 ft 386 kts 249°
2026-05-07 13:39 39.74017 1.95026 25930 ft 387 kts 249°
2026-05-07 13:40 39.73219 1.91683 26325 ft 388 kts 248°
2026-05-07 13:40 39.72420 1.88326 26718 ft 389 kts 248°
2026-05-07 13:40 39.71618 1.84957 27108 ft 390 kts 248°
2026-05-07 13:40 39.70813 1.81585 27503 ft 391 kts 248°
2026-05-07 13:41 39.70007 1.78207 27879 ft 393 kts 248°
2026-05-07 13:41 39.69195 1.74817 28250 ft 394 kts 248°
2026-05-07 13:41 39.68382 1.71425 28615 ft 395 kts 248°
2026-05-07 13:41 39.67564 1.68012 28973 ft 396 kts 247°
2026-05-07 13:42 39.66752 1.64614 29318 ft 397 kts 247°
2026-05-07 13:42 39.65929 1.61185 29629 ft 398 kts 247°
2026-05-07 13:42 39.65098 1.57741 29936 ft 399 kts 247°
2026-05-07 13:42 39.64262 1.54298 30196 ft 401 kts 247°
2026-05-07 13:43 39.63413 1.50808 30441 ft 402 kts 247°
2026-05-07 13:43 39.62571 1.47350 30678 ft 403 kts 246°
2026-05-07 13:43 39.61725 1.43875 30900 ft 404 kts 246°
2026-05-07 13:43 39.60883 1.40405 31198 ft 403 kts 247°
2026-05-07 13:44 39.60271 1.36842 31522 ft 409 kts 256°
2026-05-07 13:44 39.60044 1.33150 31842 ft 411 kts 258°
2026-05-07 13:44 39.59849 1.29461 32164 ft 409 kts 258°
2026-05-07 13:44 39.59647 1.25790 32494 ft 408 kts 258°
2026-05-07 13:45 39.59441 1.22124 32799 ft 407 kts 258°
2026-05-07 13:45 39.59233 1.18465 33108 ft 406 kts 257°
2026-05-07 13:45 39.59025 1.14827 33411 ft 405 kts 257°
2026-05-07 13:45 39.58817 1.11189 33727 ft 404 kts 257°
2026-05-07 13:46 39.58608 1.07551 34015 ft 403 kts 257°
2026-05-07 13:46 39.58399 1.03937 34255 ft 403 kts 257°
2026-05-07 13:46 39.58188 1.00305 34490 ft 403 kts 257°
2026-05-07 13:46 39.57977 0.96690 34708 ft 403 kts 258°
2026-05-07 13:47 39.57763 0.93056 34891 ft 404 kts 258°
2026-05-07 13:47 39.57332 0.85817 34955 ft 401 kts 258°
2026-05-07 13:48 39.56900 0.78611 34956 ft 401 kts 258°
2026-05-07 13:48 39.56458 0.71407 34957 ft 402 kts 258°
2026-05-07 13:49 39.56015 0.64173 34955 ft 403 kts 258°
2026-05-07 13:49 39.55573 0.56937 34958 ft 403 kts 258°
2026-05-07 13:50 39.55127 0.49711 34956 ft 403 kts 258°
2026-05-07 13:50 39.54669 0.42421 34952 ft 403 kts 258°
2026-05-07 13:51 39.54209 0.35221 34952 ft 403 kts 258°
2026-05-07 13:51 39.53739 0.27924 34947 ft 404 kts 258°
2026-05-07 13:52 39.53269 0.20670 34946 ft 404 kts 258°
2026-05-07 13:52 39.52791 0.13402 34940 ft 405 kts 258°
2026-05-07 13:53 39.52307 0.06132 34948 ft 406 kts 258°
2026-05-07 13:53 39.51820 -0.01153 34951 ft 406 kts 258°
2026-05-07 13:54 39.51337 -0.08448 34947 ft 407 kts 258°
2026-05-07 13:54 39.50837 -0.15751 34954 ft 407 kts 258°
2026-05-07 13:55 39.50332 -0.23070 34960 ft 408 kts 259°
2026-05-07 13:55 39.49830 -0.30374 34965 ft 408 kts 259°
2026-05-07 13:56 39.49322 -0.37709 34966 ft 409 kts 259°
2026-05-07 13:56 39.48676 -0.45005 34970 ft 404 kts 252°
2026-05-07 13:57 39.46544 -0.51641 34972 ft 394 kts 234°
2026-05-07 13:57 39.43284 -0.57314 34969 ft 393 kts 230°
2026-05-07 13:58 39.39979 -0.62955 34966 ft 394 kts 231°
2026-05-07 13:58 39.36671 -0.68601 34964 ft 394 kts 231°
2026-05-07 13:59 39.33344 -0.74255 34962 ft 395 kts 231°
2026-05-07 13:59 39.30010 -0.79897 34965 ft 396 kts 231°
2026-05-07 14:00 39.26668 -0.85558 34957 ft 396 kts 231°
2026-05-07 14:00 39.23328 -0.91217 34962 ft 397 kts 231°
2026-05-07 14:01 39.19971 -0.96881 34966 ft 398 kts 231°
2026-05-07 14:01 39.17168 -1.01591 34963 ft 399 kts 231°
2026-05-07 14:02 39.13796 -1.07263 34968 ft 399 kts 231°
2026-05-07 14:02 39.10387 -1.12996 34968 ft 400 kts 232°
2026-05-07 14:03 39.07017 -1.18641 34965 ft 401 kts 232°
2026-05-07 14:03 39.03592 -1.24366 34966 ft 402 kts 232°
2026-05-07 14:04 39.00172 -1.30085 34957 ft 403 kts 231°
2026-05-07 14:04 38.96750 -1.35792 34963 ft 404 kts 232°
2026-05-07 14:05 38.93312 -1.41507 34970 ft 404 kts 232°
2026-05-07 14:05 38.89872 -1.47228 34971 ft 405 kts 233°
2026-05-07 14:06 38.86421 -1.52955 34974 ft 406 kts 233°
2026-05-07 14:06 38.82957 -1.58683 34975 ft 407 kts 233°
2026-05-07 14:07 38.79490 -1.64416 34972 ft 408 kts 233°
2026-05-07 14:07 38.76008 -1.70166 34971 ft 408 kts 234°
2026-05-07 14:08 38.72514 -1.75913 34970 ft 409 kts 234°
2026-05-07 14:08 38.68989 -1.81693 34971 ft 409 kts 234°
2026-05-07 14:09 38.65483 -1.87437 34972 ft 410 kts 234°
2026-05-07 14:09 38.61979 -1.93177 34967 ft 410 kts 234°
2026-05-07 14:10 38.58462 -1.98924 34965 ft 410 kts 235°
2026-05-07 14:10 38.54947 -2.04654 34971 ft 410 kts 235°
2026-05-07 14:11 38.51426 -2.10386 34971 ft 410 kts 235°
2026-05-07 14:11 38.47905 -2.16114 34968 ft 410 kts 235°
2026-05-07 14:12 38.44377 -2.21842 34974 ft 410 kts 235°
2026-05-07 14:12 38.40855 -2.27550 34969 ft 410 kts 236°
2026-05-07 14:13 38.37326 -2.33247 34966 ft 410 kts 236°
2026-05-07 14:13 38.33527 -2.38699 34977 ft 412 kts 231°
2026-05-07 14:14 38.29581 -2.43996 34974 ft 412 kts 232°
2026-05-07 14:14 38.25619 -2.49324 34974 ft 411 kts 232°
2026-05-07 14:15 38.21687 -2.54602 34972 ft 411 kts 232°
2026-05-07 14:15 38.17755 -2.59868 34976 ft 411 kts 232°
2026-05-07 14:16 38.13817 -2.65117 34970 ft 410 kts 232°
2026-05-07 14:16 38.09877 -2.70371 34973 ft 410 kts 232°
2026-05-07 14:17 38.05939 -2.75612 34972 ft 410 kts 232°
2026-05-07 14:17 38.02009 -2.80824 34971 ft 409 kts 232°
2026-05-07 14:18 37.98073 -2.86037 34970 ft 409 kts 233°
2026-05-07 14:18 37.94142 -2.91244 34970 ft 409 kts 233°
2026-05-07 14:19 37.90212 -2.96442 34963 ft 408 kts 233°
2026-05-07 14:19 37.86285 -3.01632 34967 ft 408 kts 233°
2026-05-07 14:20 37.82334 -3.06834 34955 ft 407 kts 233°
2026-05-07 14:20 37.78405 -3.11995 34955 ft 407 kts 234°
2026-05-07 14:21 37.74911 -3.17478 34946 ft 392 kts 248°
2026-05-07 14:21 37.73204 -3.23837 34945 ft 379 kts 266°
2026-05-07 14:22 37.72808 -3.30457 34955 ft 377 kts 269°
2026-05-07 14:22 37.72447 -3.37051 34955 ft 377 kts 269°
2026-05-07 14:23 37.72079 -3.43655 34939 ft 376 kts 269°
2026-05-07 14:23 37.71708 -3.50249 34946 ft 377 kts 269°
2026-05-07 14:24 37.71330 -3.56837 34948 ft 376 kts 269°
2026-05-07 14:24 37.70956 -3.63397 34953 ft 375 kts 269°
2026-05-07 14:25 37.70575 -3.70004 34427 ft 376 kts 269°
2026-05-07 14:25 37.70384 -3.73329 33450 ft 380 kts 269°
2026-05-07 14:25 37.70190 -3.76649 32632 ft 380 kts 269°
2026-05-07 14:25 37.69992 -3.79939 32189 ft 371 kts 270°
2026-05-07 14:26 37.69796 -3.83162 31702 ft 365 kts 270°
2026-05-07 14:26 37.69604 -3.86339 31208 ft 360 kts 270°
2026-05-07 14:26 37.69420 -3.89468 30729 ft 355 kts 270°
2026-05-07 14:26 37.69240 -3.92558 30255 ft 351 kts 270°
2026-05-07 14:27 37.69059 -3.95619 29755 ft 348 kts 270°
2026-05-07 14:27 37.68878 -3.98637 29284 ft 343 kts 270°
2026-05-07 14:27 37.68696 -4.01619 28827 ft 338 kts 270°
2026-05-07 14:27 37.68516 -4.04553 28383 ft 333 kts 270°
2026-05-07 14:28 37.68338 -4.07459 27944 ft 329 kts 270°
2026-05-07 14:28 37.68164 -4.10322 27515 ft 327 kts 270°
2026-05-07 14:28 37.67990 -4.13176 27090 ft 325 kts 270°
2026-05-07 14:28 37.67820 -4.16004 26671 ft 323 kts 270°
2026-05-07 14:29 37.67649 -4.18823 26253 ft 321 kts 270°
2026-05-07 14:29 37.67476 -4.21624 25854 ft 319 kts 270°
2026-05-07 14:29 37.67301 -4.24415 25450 ft 318 kts 270°
2026-05-07 14:29 37.67126 -4.27182 25057 ft 316 kts 269°
2026-05-07 14:30 37.66949 -4.29947 24664 ft 315 kts 269°
2026-05-07 14:30 37.66773 -4.32696 24281 ft 313 kts 269°
2026-05-07 14:30 37.66600 -4.35428 23905 ft 312 kts 269°
2026-05-07 14:30 37.66429 -4.38152 23533 ft 310 kts 269°
2026-05-07 14:31 37.66259 -4.40860 23107 ft 309 kts 269°
2026-05-07 14:31 37.66088 -4.43562 22729 ft 310 kts 269°
2026-05-07 14:31 37.65914 -4.46271 22355 ft 310 kts 269°
2026-05-07 14:31 37.65737 -4.48985 21979 ft 310 kts 269°
2026-05-07 14:32 37.65560 -4.51719 21592 ft 310 kts 269°
2026-05-07 14:32 37.65444 -4.53519 21341 ft 310 kts 269°
2026-05-07 14:32 37.65269 -4.56232 20950 ft 310 kts 268°
2026-05-07 14:32 37.65092 -4.58939 20560 ft 310 kts 268°
2026-05-07 14:33 37.64913 -4.61649 20166 ft 310 kts 268°
2026-05-07 14:33 37.64733 -4.64356 19761 ft 310 kts 268°
2026-05-07 14:33 37.64551 -4.67075 19361 ft 310 kts 268°
2026-05-07 14:33 37.64369 -4.69781 18960 ft 311 kts 268°
2026-05-07 14:34 37.64186 -4.72505 18552 ft 311 kts 268°
2026-05-07 14:34 37.64005 -4.75216 18139 ft 311 kts 267°
2026-05-07 14:34 37.63821 -4.77968 17690 ft 310 kts 267°
2026-05-07 14:34 37.63638 -4.80681 17284 ft 310 kts 267°
2026-05-07 14:35 37.63459 -4.83344 16888 ft 309 kts 267°
2026-05-07 14:35 37.63276 -4.86081 16487 ft 308 kts 267°
2026-05-07 14:35 37.63095 -4.88765 16099 ft 307 kts 266°
2026-05-07 14:35 37.62913 -4.91450 15705 ft 307 kts 266°
2026-05-07 14:36 37.62729 -4.94130 15310 ft 307 kts 266°
2026-05-07 14:36 37.62544 -4.96813 14914 ft 307 kts 266°
2026-05-07 14:36 37.62357 -4.99500 14518 ft 307 kts 266°
2026-05-07 14:36 37.62170 -5.02175 14127 ft 308 kts 265°
2026-05-07 14:37 37.61983 -5.04872 13719 ft 309 kts 265°
2026-05-07 14:37 37.61606 -5.10269 12867 ft 308 kts 265°
2026-05-07 14:37 37.61418 -5.12954 12457 ft 307 kts 265°
2026-05-07 14:38 37.61230 -5.15632 12042 ft 307 kts 265°
2026-05-07 14:38 37.61043 -5.18312 11621 ft 306 kts 264°
2026-05-07 14:38 37.60856 -5.20974 11197 ft 305 kts 264°
2026-05-07 14:38 37.60593 -5.23626 10762 ft 304 kts 256°
2026-05-07 14:39 37.59915 -5.26137 10332 ft 302 kts 244°
2026-05-07 14:39 37.58841 -5.28378 10124 ft 294 kts 235°
2026-05-07 14:39 37.57713 -5.30482 9944 ft 286 kts 235°
2026-05-07 14:39 37.56621 -5.32541 9856 ft 281 kts 236°
2026-05-07 14:40 37.55535 -5.34594 9623 ft 284 kts 236°
2026-05-07 14:40 37.54429 -5.36682 9160 ft 285 kts 236°
2026-05-07 14:40 37.53320 -5.38770 8813 ft 282 kts 235°
2026-05-07 14:40 37.52244 -5.40789 8419 ft 280 kts 235°
2026-05-07 14:41 37.51146 -5.42847 8011 ft 279 kts 235°
2026-05-07 14:41 37.50069 -5.44868 7609 ft 278 kts 235°
2026-05-07 14:41 37.49006 -5.46865 7083 ft 273 kts 235°
2026-05-07 14:41 37.47949 -5.48847 6441 ft 271 kts 234°
2026-05-07 14:42 37.46902 -5.50806 5802 ft 268 kts 234°
2026-05-07 14:42 37.45870 -5.52736 5232 ft 262 kts 235°
2026-05-07 14:42 37.44861 -5.54617 4602 ft 259 kts 236°
2026-05-07 14:42 37.43838 -5.56525 4067 ft 265 kts 236°
2026-05-07 14:43 37.42823 -5.58420 3883 ft 257 kts 236°
2026-05-07 14:43 37.42051 -5.60387 3746 ft 246 kts 253°
2026-05-07 14:43 37.41843 -5.62463 3621 ft 235 kts 268°
2026-05-07 14:43 37.41842 -5.64473 3515 ft 225 kts 267°
2026-05-07 14:44 37.41841 -5.66413 3379 ft 221 kts 268°
2026-05-07 14:44 37.41837 -5.68346 3131 ft 221 kts 267°
2026-05-07 14:44 37.41835 -5.70264 2812 ft 216 kts 268°
2026-05-07 14:44 37.41834 -5.72096 2549 ft 200 kts 266°
2026-05-07 14:45 37.41829 -5.73790 2365 ft 188 kts 266°
2026-05-07 14:45 37.41823 -5.75379 2127 ft 176 kts 267°
2026-05-07 14:45 37.41818 -5.76875 1816 ft 166 kts 268°
2026-05-07 14:45 37.41822 -5.78247 1633 ft 148 kts 265°
2026-05-07 14:46 37.41826 -5.79488 1427 ft 140 kts 265°
2026-05-07 14:46 37.41825 -5.80680 1228 ft 134 kts 264°
2026-05-07 14:46 37.41818 -5.81841 1042 ft 132 kts 266°
2026-05-07 14:46 37.41807 -5.83028 849 ft 140 kts 264°
2026-05-07 14:47 37.41798 -5.84260 655 ft 142 kts 266°
2026-05-07 14:47 37.41801 -5.85515 506 ft 140 kts 268°
2026-05-07 14:47 37.41808 -5.86725 278 ft 140 kts 265°
2026-05-07 14:47 37.41799 -5.87940 121 ft 130 kts 265°
2026-05-07 14:48 37.41794 -5.88924 109 ft 96 kts 270°
2026-05-07 14:48 37.41793 -5.89620 105 ft 59 kts 269°
2026-05-07 14:48 37.41791 -5.90064 108 ft 34 kts 270°
2026-05-07 14:48 37.41793 -5.90251 109 ft 13 kts 276°
2026-05-07 14:49 37.41855 -5.90305 110 ft 11 kts 357°
2026-05-07 14:49 37.41924 -5.90303 110 ft 9 kts 359°
2026-05-07 14:49 37.41987 -5.90303 110 ft 9 kts
2026-05-07 14:49 37.42039 -5.90278 109 ft 8 kts 63°
2026-05-07 14:50 37.42085 -5.90263 106 ft 7 kts
2026-05-07 14:50 37.42110 -5.90248 106 ft 3 kts 39°
2026-05-07 14:50 37.42111 -5.90247 106 ft 0 kts 40°